RADUGA 1 1 08513U 75123A 21018.10199521 -.00000046 00000-0 00000-0 0 9996 2 08513 7.7910 295.5731 0004968 202.1842 87.1867 1.00294634174997 SL-12 R/B(AUX MOTOR) 1 08546U 75123D 21018.22614705 -.00000434 00000-0 -96992-3 0 9991 2 08546 45.9496 4.6296 5907520 24.1262 354.8611 3.97330547611900 SL-12 R/B(2) 1 11568U 75123F 21018.34254517 -.00000183 00000-0 00000-0 0 9995 2 11568 7.5314 294.6197 0015092 149.2689 237.2059 1.00515527102149